Regional Weather Roundup
Issued by NWS Albany, NY

Home | Current Version | Previous Version | Text Only | Print | Product List | Glossary On
Versions: 1 2 3 4 5 6 7 8 9 10 11 12 13 14 15 16 17 18 19 20 21 22 23 24 25 26 27 28 29 30 31 32 33 34 35 36 37 38 39 40 41 42 43 44 45 46 47 48 49 50
642
ASUS41 KALY 021110
RWRALY

NEW YORK STATE HOURLY WEATHER ROUNDUP
NATIONAL WEATHER SERVICE ALBANY NY
600 AM EST FRI DEC 02 2016

NOTE: "FAIR" INDICATES FEW OR NO CLOUDS BELOW 12,000 FEET WITH NO
SIGNIFICANT WEATHER AND/OR NO OBSTRUCTIONS TO VISIBILITY.

NYZ032-033-038>043-046>054-057>066-NYZ062>081-082-084-021200-
EAST


CITY           SKY/WX    TMP DP  RH WIND       PRES   REMARKS
ALBANY         MOCLDY    38  30  73 SW6       29.78S WCI  33
GLENS FALLS    CLOUDY    41  31  67 S10       29.74S
POUGHKEEPSIE   PTCLDY    38  28  67 SW8       29.83S WCI  32
NEWBURGH       PTCLDY    36  30  80 W12G21    29.85R WCI  27
MONTGOMERY     CLOUDY    34  28  79 SW7       29.85R WCI  28
WHITE PLAINS   PTCLDY    38  27  64 W7        29.85R WCI  33
ISLIP          PTCLDY    36  28  73 SW6       29.87R WCI  31
NEW YORK CITY  PTCLDY    44  28  53 W15G25    29.88S
CENTRAL PARK   PTCLDY    41  27  57 W5        29.91R
$$

NYZ005>009-017-018-044>046-055-056-021200-
CENTRAL


CITY           SKY/WX    TMP DP  RH WIND       PRES   REMARKS
FULTON         CLOUDY    42  35  76 SW13      29.77R
SYRACUSE       LGT RAIN  41  34  76 SW20      29.78R
ROME           CLOUDY    41  35  79 W13       29.78R
ELMIRA         CLOUDY    39  32  76 SW8       29.84R WCI  33
BINGHAMTON     CLOUDY    35  30  82 W13       29.79S WCI  26
MONTICELLO     CLOUDY    34  28  80 W8        29.82S WCI  27
$$

NYZ026>034-041>043-087-021200-
NORTH


CITY           SKY/WX    TMP DP  RH WIND       PRES   REMARKS
WATERTOWN      CLOUDY    43  34  70 W23G32    29.71R
FORT DRUM      NOT AVBL
OGDENSBURG     MOCLDY    43  37  80 SW9G17    29.66R
MASSENA        CLOUDY    43  34  70 SW12      29.65S
SARANAC LAKE   CLOUDY    35  32  88 SW9       29.63R WCI  28
PLATTSBURGH    CLOUDY    42  34  73 S5        29.66R
$$

NYZ001>004-010>016-019>021-085-021200-
WEST


CITY           SKY/WX    TMP DP  RH WIND       PRES   REMARKS
NIAGARA FALLS  CLEAR     39  31  72 W15       29.82R WCI  31
BUFFALO        PTCLDY    39  31  72 W12G22    29.83R WCI  32
DUNKIRK        CLOUDY    42  34  73 W18G26    29.87R
JAMESTOWN      CLOUDY    34  30  86 SW12      29.86R WCI  25
WELLSVILLE     CLOUDY    35  31  85 W12G21    29.83R WCI  27
ROCHESTER      PTCLDY    41  32  70 W16       29.80R
PENN YAN       CLOUDY    39  32  76 SW15      29.81S WCI  31
$$

             KEY
       WCI = WIND CHILL INDEX
       VSB = VISIBILITY
       HX  = HEAT INDEX
$$




USA.gov is the U.S. government's official web portal to all federal, state and local government web resources and services.